STARLINK-1818 (46716 NORAD) Tracking and Keplerian Element Data

This shows tracking and keplerian element data for the satellite.

Feedback or suggestion? Click here.




ElementValue
Catalog46716
NameSTARLINK-1818
Epoch Orbit670
Epoch Day332.16667824
Epoch Year2020
RAAN275.3655
Inclination53.0524
Eccentricity0.0001471
Argument of Perigee51.0302
Mean Anonmoly19.2371
Mean Motion15.34611325
Decay Rate-0.01076122
L11 46716U 20073AY 20332.16667824 -.01076122 00000-0 -34489-1 0 9996
L22 46716 53.0524 275.3655 0001471 51.0302 19.2371 15.34611325 6709

Live tracking and technical data element details for STARLINK-1818 (NORAD 46716). STARLINK-1818 can be tracked NOW for your location showing map with azimuth and elevation plus other details from your city location.

Track the satellite on the map from your city or location and see movement details for azimuth, elevation, latitude, longitude, range, height, and movement on the map or in text.







IsCatalogInMostPopularTable: catalog: 46716, numindb: 13
Update: records affected: 1



GetName: 46716 STARLINK-1818

Hit Count: updated at: Fri, 27 Nov 2020 13:53:27 GMT